EW3591 Weather Reports


Display with metric or nautical units.
time (UTC)temp
F
wind
direction
speed
MPH
gust
MPH
rain 1hr
in
rain 24hr
in
rain mn
in
humidity
%
barometer
mb
20260507114551 40 243 0.0 3.0 0.00 0.01 0.00 84 1011.9
20260507114351 40 243 0.0 3.0 0.00 0.01 0.00 84 1011.9
20260507114150 40 230 1.0 3.0 0.00 0.01 0.00 84 1012.0
20260507113950 39 244 1.0 3.0 0.00 0.01 0.00 85 1011.9
20260507113750 39 253 0.0 3.0 0.00 0.01 0.00 85 1011.8
20260507113550 39 251 0.0 3.0 0.00 0.01 0.00 85 1011.9
20260507113349 39 251 0.0 4.0 0.00 0.01 0.00 85 1011.9
20260507113149 39 251 0.0 4.0 0.00 0.01 0.00 86 1011.9
20260507112949 39 236 0.0 4.0 0.00 0.01 0.00 86 1012.0
20260507112748 38 233 1.0 4.0 0.00 0.01 0.00 86 1011.9
20260507112548 38 237 1.0 4.0 0.00 0.01 0.00 86 1011.9
20260507112348 38 236 0.0 2.0 0.00 0.01 0.00 86 1011.9
20260507112147 38 236 0.0 2.0 0.00 0.01 0.00 86 1011.8
20260507111947 38 236 0.0 2.0 0.00 0.01 0.00 86 1011.9
20260507111747 38 236 0.0 2.0 0.00 0.01 0.00 87 1011.8
20260507111547 38 236 0.0 2.0 0.00 0.01 0.00 87 1011.7
20260507111346 38 236 0.0 2.0 0.00 0.01 0.00 87 1011.8
20260507111146 38 236 0.0 2.0 0.00 0.01 0.00 87 1011.8
20260507110946 38 234 0.0 2.0 0.00 0.01 0.00 87 1011.8
20260507110745 38 237 1.0 2.0 0.00 0.01 0.00 87 1011.8
20260507110545 38 242 0.0 3.0 0.00 0.01 0.00 87 1011.8
20260507110345 38 242 0.0 3.0 0.00 0.01 0.00 87 1011.7
20260507110144 38 0 0.0 3.0 0.00 0.01 0.00 87 1011.8
20260507105944 38 241 0.0 3.0 0.00 0.01 0.00 87 1011.8
20260507105744 38 241 1.0 3.0 0.00 0.01 0.00 87 1011.7
20260507105543 38 241 1.0 3.0 0.00 0.01 0.00 86 1011.7
20260507105343 38 241 0.0 3.0 0.00 0.01 0.00 86 1011.7
20260507105143 38 241 0.0 2.0 0.00 0.01 0.00 86 1011.6
20260507104943 38 241 0.0 2.0 0.00 0.01 0.00 86 1011.6
20260507104742 38 240 0.0 2.0 0.00 0.01 0.00 86 1011.7
20260507104542 38 228 0.0 2.0 0.00 0.01 0.00 86 1011.6
20260507104342 38 208 0.0 2.0 0.00 0.01 0.00 86 1011.6
20260507104141 38 213 0.0 2.0 0.00 0.01 0.00 86 1011.6
20260507103941 38 258 0.0 2.0 0.00 0.01 0.00 86 1011.5
20260507103741 38 258 0.0 2.0 0.00 0.01 0.00 86 1011.5
20260507103540 38 258 0.0 2.0 0.00 0.01 0.00 86 1011.4
20260507103340 38 258 0.0 2.0 0.00 0.01 0.00 86 1011.4
20260507103140 38 259 0.0 2.0 0.00 0.01 0.00 86 1011.4
20260507102940 38 265 0.0 2.0 0.00 0.01 0.00 86 1011.4
20260507102739 38 265 0.0 2.0 0.00 0.01 0.00 86 1011.4
20260507102539 38 0 0.0 2.0 0.00 0.01 0.00 85 1011.5
20260507102339 38 0 0.0 2.0 0.00 0.01 0.00 85 1011.6
20260507102138 38 265 0.0 2.0 0.00 0.01 0.00 85 1011.6
20260507101938 38 0 0.0 2.0 0.00 0.01 0.00 85 1011.5
20260507101738 38 264 0.0 2.0 0.00 0.01 0.00 85 1011.6
20260507101538 38 263 0.0 2.0 0.00 0.01 0.00 85 1011.7
20260507101337 38 257 0.0 2.0 0.00 0.01 0.00 85 1011.7
20260507101137 38 225 0.0 2.0 0.00 0.01 0.00 85 1011.7
20260507100937 39 225 0.0 3.0 0.00 0.01 0.00 85 1011.8
20260507100736 39 225 0.0 3.0 0.00 0.01 0.00 84 1011.7
20260507100536 39 225 0.0 3.0 0.00 0.01 0.00 84 1011.9
20260507100336 39 225 1.0 3.0 0.00 0.01 0.00 84 1011.9
20260507100135 39 225 0.0 3.0 0.00 0.01 0.00 84 1011.9
20260507095935 39 225 0.0 3.0 0.00 0.03 0.00 84 1012.0
20260507095735 39 0 0.0 3.0 0.00 0.03 0.00 83 1012.2
20260507095534 39 225 0.0 3.0 0.00 0.03 0.00 83 1012.3
20260507095334 39 221 0.0 3.0 0.00 0.03 0.00 83 1012.3
20260507095134 39 289 0.0 2.0 0.00 0.03 0.00 82 1012.4
20260507094934 39 302 0.0 4.0 0.00 0.03 0.00 82 1012.3
20260507094733 39 67 0.0 5.0 0.00 0.03 0.00 82 1012.2
20260507094533 39 59 0.0 5.0 0.00 0.03 0.00 82 1012.3
20260507094333 39 29 0.0 5.0 0.00 0.03 0.00 82 1012.3
20260507094132 39 360 1.0 5.0 0.00 0.03 0.00 82 1012.2
20260507093932 39 338 1.0 4.0 0.00 0.03 0.00 81 1012.3
20260507093732 39 4 1.0 4.0 0.00 0.03 0.00 81 1012.2
20260507093531 39 350 1.0 4.0 0.00 0.03 0.00 81 1012.2
20260507093331 39 350 1.0 4.0 0.00 0.03 0.00 81 1012.2
20260507093131 39 4 1.0 4.0 0.00 0.03 0.00 81 1012.2
20260507092931 39 22 0.0 4.0 0.00 0.03 0.00 80 1012.2
20260507092730 39 48 1.0 4.0 0.00 0.03 0.00 80 1012.2
20260507092530 39 360 1.0 4.0 0.00 0.03 0.00 80 1012.2
20260507092330 39 8 1.0 3.0 0.00 0.03 0.00 80 1012.3
20260507092129 39 306 0.0 3.0 0.00 0.03 0.00 80 1012.2
20260507091929 39 313 0.0 3.0 0.00 0.03 0.00 79 1012.2
20260507091729 39 295 0.0 3.0 0.00 0.03 0.00 79 1012.2
20260507091528 39 336 1.0 4.0 0.00 0.03 0.00 79 1012.2
20260507091328 39 347 1.0 4.0 0.00 0.03 0.00 79 1012.3
20260507091128 39 16 0.0 6.0 0.00 0.03 0.00 79 1012.2
20260507090928 39 23 1.0 9.0 0.00 0.03 0.00 79 1012.2
20260507090727 39 32 1.0 9.0 0.00 0.03 0.00 80 1012.1
20260507090527 39 33 1.0 9.0 0.00 0.03 0.00 80 1012.2
20260507090327 39 29 3.0 9.0 0.00 0.03 0.00 80 1012.3
20260507090126 39 18 2.0 9.0 0.00 0.03 0.00 80 1012.2
20260507085926 39 16 2.0 9.0 0.00 0.05 0.00 81 1012.2
20260507085726 39 31 3.0 9.0 0.00 0.05 0.00 81 1012.2
20260507085525 39 33 2.0 6.0 0.00 0.05 0.00 82 1012.0
20260507085325 39 1 1.0 3.0 0.00 0.05 0.00 82 1011.9
20260507085125 39 246 0.0 2.0 0.00 0.05 0.00 82 1012.0
20260507084925 38 220 0.0 2.0 0.00 0.05 0.00 82 1012.0
20260507084724 38 220 0.0 2.0 0.00 0.05 0.00 83 1012.0
20260507084524 38 220 0.0 2.0 0.00 0.05 0.00 83 1012.1
20260507084324 38 0 0.0 2.0 0.00 0.05 0.00 83 1012.0
20260507084123 38 220 0.0 2.0 0.00 0.05 0.00 83 1012.1
20260507083923 38 220 0.0 2.0 0.00 0.05 0.00 84 1012.1
20260507083723 38 220 0.0 2.0 0.00 0.05 0.00 84 1012.1
20260507083522 38 0 0.0 0.0 0.00 0.05 0.00 84 1012.1
20260507083322 38 0 0.0 0.0 0.00 0.05 0.00 84 1012.1
20260507083122 38 0 0.0 0.0 0.00 0.05 0.00 84 1012.1
20260507082922 38 0 0.0 0.0 0.00 0.05 0.00 83 1012.1
20260507082721 38 0 0.0 0.0 0.00 0.05 0.00 83 1012.0
20260507082521 38 0 0.0 0.0 0.00 0.05 0.00 83 1011.9
20260507082321 38 0 0.0 0.0 0.00 0.05 0.00 83 1011.9
20260507082120 38 0 0.0 1.0 0.00 0.05 0.00 83 1012.0
20260507081920 38 0 0.0 1.0 0.00 0.05 0.00 84 1012.0
20260507081720 38 0 0.0 1.0 0.00 0.05 0.00 84 1012.0
20260507081519 38 220 0.0 1.0 0.00 0.05 0.00 85 1012.1
20260507081319 38 220 0.0 1.0 0.00 0.05 0.00 85 1012.0
20260507081119 38 0 0.0 0.0 0.00 0.05 0.00 85 1012.0
20260507080919 38 0 0.0 0.0 0.00 0.05 0.00 85 1012.0
20260507080718 38 0 0.0 0.0 0.00 0.05 0.00 85 1012.0
20260507080518 38 0 0.0 0.0 0.00 0.05 0.00 85 1012.0
20260507080318 38 0 0.0 0.0 0.00 0.05 0.00 85 1012.1
20260507080117 38 0 0.0 0.0 0.00 0.05 0.00 85 1012.1
20260507075917 38 0 0.0 0.0 0.00 0.08 0.00 85 1012.0
20260507075717 38 0 0.0 0.0 0.00 0.08 0.00 85 1012.0
20260507075516 38 0 0.0 0.0 0.00 0.08 0.00 85 1012.0
20260507075316 38 0 0.0 0.0 0.00 0.08 0.00 85 1011.9
20260507075116 38 0 0.0 2.0 0.00 0.08 0.00 84 1011.9
20260507074915 38 0 0.0 2.0 0.00 0.08 0.00 84 1011.9
20260507074715 38 0 0.0 2.0 0.00 0.08 0.00 84 1011.8
20260507074515 38 0 0.0 2.0 0.00 0.08 0.00 84 1011.7
20260507074315 38 220 0.0 2.0 0.00 0.08 0.00 85 1011.6
20260507074114 38 220 0.0 2.0 0.00 0.08 0.00 85 1011.6
20260507073914 38 220 0.0 2.0 0.00 0.08 0.00 85 1011.6
20260507073714 38 220 0.0 2.0 0.00 0.08 0.00 85 1011.6
20260507073513 38 220 0.0 2.0 0.00 0.08 0.00 86 1011.6
20260507073313 38 220 0.0 2.0 0.00 0.08 0.00 86 1011.7
20260507073113 38 220 0.0 2.0 0.00 0.08 0.00 87 1011.7
20260507072913 38 220 1.0 2.0 0.00 0.08 0.00 88 1011.7
20260507072712 37 220 0.0 2.0 0.00 0.08 0.00 88 1011.7
20260507072512 37 0 0.0 0.0 0.00 0.08 0.00 88 1011.8
20260507072312 37 0 0.0 0.0 0.00 0.08 0.00 88 1012.0
20260507072111 37 0 0.0 0.0 0.00 0.08 0.00 88 1012.0
20260507071911 37 0 0.0 0.0 0.00 0.08 0.00 89 1012.0
20260507071711 37 0 0.0 0.0 0.00 0.08 0.00 89 1012.1
20260507071510 37 0 0.0 0.0 0.00 0.08 0.00 90 1012.0
20260507071310 37 0 0.0 0.0 0.00 0.08 0.00 90 1012.0
20260507071110 37 0 0.0 0.0 0.00 0.08 0.00 90 1012.1
20260507070910 37 0 0.0 0.0 0.00 0.08 0.00 90 1012.0
20260507070709 37 0 0.0 0.0 0.00 0.08 0.00 90 1012.1
20260507070509 37 0 0.0 0.0 0.00 0.08 0.00 89 1012.0
20260507070309 37 0 0.0 0.0 0.00 0.08 0.00 89 1012.0
20260507070108 37 0 0.0 0.0 0.00 0.08 0.00 89 1012.0
20260507065908 37 0 0.0 0.0 0.00 0.13 0.00 89 1012.0
20260507065708 37 0 0.0 0.0 0.00 0.13 0.00 89 1012.0
20260507065507 38 0 0.0 0.0 0.00 0.13 0.00 89 1012.0
20260507065307 38 0 0.0 0.0 0.00 0.13 0.00 88 1011.9
20260507065107 38 0 0.0 0.0 0.00 0.13 0.00 88 1012.0
20260507064907 38 0 0.0 0.0 0.00 0.13 0.00 88 1011.9
20260507064706 38 0 0.0 0.0 0.00 0.13 0.00 87 1011.9
20260507064506 38 0 0.0 0.0 0.00 0.13 0.00 87 1011.9
20260507064306 38 0 0.0 0.0 0.00 0.13 0.00 86 1011.9
20260507064105 38 0 0.0 1.0 0.00 0.13 0.00 86 1011.9
20260507063905 38 0 0.0 1.0 0.00 0.13 0.00 87 1011.9
20260507063705 38 220 0.0 1.0 0.00 0.13 0.00 88 1011.9
20260507063504 38 220 0.0 1.0 0.00 0.13 0.00 88 1011.9
20260507063304 39 0 0.0 0.0 0.00 0.13 0.00 88 1011.9
20260507063104 39 0 0.0 0.0 0.00 0.13 0.00 88 1012.0
20260507062903 39 0 0.0 0.0 0.00 0.13 0.00 87 1012.0
20260507062703 39 0 0.0 0.0 0.00 0.13 0.00 87 1011.9
20260507062503 39 0 0.0 0.0 0.00 0.13 0.00 87 1012.0
20260507062305 39 0 0.0 0.0 0.00 0.13 0.00 87 1012.0
20260507062102 39 0 0.0 0.0 0.00 0.13 0.00 87 1012.1
20260507061902 39 0 0.0 0.0 0.00 0.13 0.00 88 1012.1
20260507061702 39 0 0.0 0.0 0.00 0.13 0.00 87 1012.0
20260507061502 39 0 0.0 0.0 0.00 0.13 0.00 87 1012.0
20260507061301 39 0 0.0 1.0 0.00 0.13 0.00 87 1012.1
20260507061101 40 0 0.0 2.0 0.00 0.13 0.00 87 1012.0
20260507060900 40 220 0.0 2.0 0.00 0.13 0.00 87 1012.0
20260507060700 40 220 0.0 2.0 0.00 0.13 0.00 87 1012.0
20260507060500 40 220 1.0 2.0 0.00 0.13 0.00 87 1012.0
20260507060300 40 220 0.0 2.0 0.00 0.13 0.00 86 1012.0
20260507060059 40 0 0.0 0.0 0.00 0.13 0.00 86 1012.0
20260507055859 40 0 0.0 0.0 0.00 0.20 0.00 85 1011.9
20260507055659 40 0 0.0 0.0 0.00 0.20 0.00 85 1011.9
20260507055458 40 0 0.0 0.0 0.00 0.20 0.00 85 1011.9
20260507055258 40 0 0.0 0.0 0.00 0.20 0.00 84 1011.9
20260507055058 40 0 0.0 0.0 0.00 0.20 0.00 84 1012.0
20260507054857 41 0 0.0 0.0 0.00 0.20 0.00 84 1012.0
20260507054657 41 0 0.0 2.0 0.00 0.20 0.00 84 1012.1
20260507054457 41 0 0.0 2.0 0.00 0.20 0.00 84 1012.1
20260507054257 41 0 0.0 2.0 0.00 0.20 0.00 84 1012.1
20260507054056 41 220 0.0 2.0 0.00 0.20 0.00 84 1012.2
20260507053856 41 220 0.0 2.0 0.00 0.20 0.00 84 1012.2
20260507053656 41 220 0.0 2.0 0.00 0.20 0.00 84 1012.3
20260507053455 41 222 1.0 2.0 0.00 0.20 0.00 84 1012.3
20260507053255 41 224 0.0 2.0 0.00 0.20 0.00 84 1012.3
20260507053055 41 0 0.0 2.0 0.00 0.20 0.00 84 1012.2
20260507052854 41 0 0.0 0.0 0.00 0.20 0.00 84 1012.3
20260507052654 41 0 0.0 0.0 0.00 0.20 0.00 83 1012.3
20260507052454 41 0 0.0 0.0 0.00 0.20 0.00 83 1012.4
20260507052254 41 0 0.0 0.0 0.00 0.20 0.00 83 1012.3
20260507052053 41 0 0.0 0.0 0.00 0.20 0.00 83 1012.3
20260507051853 41 0 0.0 0.0 0.00 0.20 0.00 82 1012.3
20260507051653 41 0 0.0 0.0 0.00 0.20 0.00 82 1012.3
20260507051452 41 0 0.0 0.0 0.00 0.20 0.00 82 1012.2
20260507051252 41 0 0.0 0.0 0.00 0.20 0.00 82 1012.2
20260507051052 41 0 0.0 0.0 0.00 0.20 0.00 82 1012.2
20260507050852 41 0 0.0 0.0 0.00 0.20 0.00 82 1012.2
20260507050651 41 0 0.0 0.0 0.00 0.20 0.00 82 1012.3
20260507050451 41 0 0.0 0.0 0.00 0.20 0.00 82 1012.3
20260507050250 41 0 0.0 0.0 0.00 0.20 0.00 82 1012.3
20260507050050 41 0 0.0 0.0 0.00 0.20 0.00 82 1012.4
20260507045850 41 0 0.0 1.0 0.00 0.23 0.00 82 1012.4
20260507045650 41 0 0.0 1.0 0.00 0.23 0.00 82 1012.4
20260507045449 41 0 0.0 1.0 0.00 0.23 0.00 82 1012.3
20260507045249 41 220 0.0 1.0 0.00 0.23 0.00 82 1012.3
20260507045049 41 220 0.0 1.0 0.00 0.23 0.00 82 1012.3
20260507044848 41 220 0.0 1.0 0.00 0.23 0.00 82 1012.3
20260507044648 41 220 0.0 1.0 0.00 0.23 0.00 82 1012.3
20260507044448 41 0 0.0 0.0 0.00 0.23 0.00 82 1012.3
20260507044248 41 0 0.0 0.0 0.00 0.23 0.00 82 1012.3
20260507044047 41 0 0.0 0.0 0.00 0.23 0.00 81 1012.4
20260507043847 41 0 0.0 0.0 0.00 0.23 0.00 81 1012.4
20260507043647 41 0 0.0 0.0 0.00 0.23 0.00 81 1012.5
20260507043446 41 0 0.0 0.0 0.00 0.23 0.00 81 1012.5
20260507043246 41 0 0.0 0.0 0.00 0.23 0.00 81 1012.5
20260507043046 41 0 0.0 0.0 0.00 0.23 0.00 81 1012.5
20260507042845 41 0 0.0 0.0 0.00 0.23 0.00 81 1012.4
20260507042645 41 0 0.0 0.0 0.00 0.23 0.00 81 1012.5
20260507042445 41 0 0.0 0.0 0.00 0.23 0.00 81 1012.5
20260507042245 41 0 0.0 0.0 0.00 0.23 0.00 81 1012.3
20260507042044 41 0 0.0 0.0 0.00 0.23 0.00 81 1012.3
20260507041844 41 0 0.0 0.0 0.00 0.23 0.00 81 1012.3
20260507041644 41 0 0.0 1.0 0.00 0.23 0.00 81 1012.3
20260507041443 41 0 0.0 2.0 0.00 0.23 0.00 81 1012.3
20260507041243 41 0 0.0 2.0 0.00 0.23 0.00 81 1012.3
20260507041043 41 0 0.0 2.0 0.00 0.23 0.00 80 1012.3
20260507040842 41 220 0.0 2.0 0.00 0.23 0.00 81 1012.3
20260507040642 40 203 0.0 2.0 0.00 0.23 0.00 81 1012.5
20260507040442 40 148 0.0 2.0 0.00 0.23 0.00 82 1012.6
20260507040241 40 139 0.0 2.0 0.00 0.23 0.00 82 1012.6
20260507040041 40 120 0.0 2.0 0.00 0.23 0.00 83 1012.6
20260507035841 39 112 0.0 2.0 0.00 0.23 0.23 84 1012.5
20260507035641 39 112 0.0 2.0 0.00 0.23 0.23 84 1012.5
20260507035440 39 0 0.0 0.0 0.00 0.23 0.23 84 1012.5
20260507035240 39 0 0.0 0.0 0.00 0.23 0.23 84 1012.5
20260507035040 39 0 0.0 0.0 0.00 0.23 0.23 84 1012.6
20260507034839 39 0 0.0 0.0 0.00 0.23 0.23 84 1012.6
20260507034639 39 0 0.0 0.0 0.00 0.23 0.23 84 1012.6
20260507034439 39 0 0.0 0.0 0.00 0.23 0.23 84 1012.6
20260507034239 39 0 0.0 0.0 0.00 0.23 0.23 84 1012.6
20260507034038 39 0 0.0 0.0 0.00 0.23 0.23 84 1012.6
20260507033838 39 0 0.0 0.0 0.00 0.23 0.23 84 1012.5
20260507033638 39 0 0.0 0.0 0.00 0.23 0.23 84 1012.5
20260507033437 39 0 0.0 0.0 0.00 0.23 0.23 85 1012.6
20260507033237 38 0 0.0 0.0 0.00 0.23 0.23 85 1012.7
20260507033037 38 0 0.0 0.0 0.00 0.23 0.23 85 1012.5
20260507032836 38 0 0.0 0.0 0.00 0.23 0.23 84 1012.5
20260507032636 38 0 0.0 0.0 0.00 0.23 0.23 84 1012.5
20260507032436 38 0 0.0 0.0 0.00 0.23 0.23 84 1012.5
20260507032235 38 0 0.0 0.0 0.00 0.23 0.23 84 1012.6
20260507032035 38 0 0.0 0.0 0.00 0.23 0.23 84 1012.6
20260507031835 38 0 0.0 0.0 0.00 0.23 0.23 83 1012.6
20260507031635 38 0 0.0 0.0 0.00 0.23 0.23 83 1012.6
20260507031434 39 0 0.0 0.0 0.00 0.23 0.23 83 1012.6
20260507031234 39 0 0.0 0.0 0.00 0.23 0.23 83 1012.6
20260507031034 39 0 0.0 0.0 0.00 0.23 0.23 83 1012.7
20260507030833 39 0 0.0 0.0 0.00 0.23 0.23 83 1012.7
20260507030633 39 0 0.0 0.0 0.00 0.23 0.23 83 1012.7
20260507030433 39 0 0.0 0.0 0.00 0.23 0.23 83 1012.7
20260507030232 39 0 0.0 0.0 0.00 0.23 0.23 83 1012.7
20260507030032 39 0 0.0 0.0 0.00 0.23 0.23 82 1012.7
20260507025832 39 0 0.0 0.0 0.00 0.24 0.23 82 1012.7
20260507025632 39 0 0.0 0.0 0.00 0.24 0.23 82 1012.7
20260507025431 39 0 0.0 0.0 0.00 0.24 0.23 82 1012.7
20260507025231 39 0 0.0 0.0 0.00 0.24 0.23 81 1012.6
20260507025031 39 0 0.0 0.0 0.00 0.24 0.23 81 1012.6
20260507024830 39 0 0.0 0.0 0.00 0.24 0.23 81 1012.6
20260507024630 39 0 0.0 0.0 0.00 0.24 0.23 81 1012.5
20260507024430 39 0 0.0 0.0 0.00 0.24 0.23 80 1012.5
20260507024229 39 0 0.0 0.0 0.00 0.24 0.23 79 1012.4
20260507024030 39 0 0.0 0.0 0.00 0.24 0.23 78 1012.5
20260507023829 40 0 0.0 0.0 0.00 0.24 0.23 78 1012.5
20260507023629 40 0 0.0 0.0 0.00 0.24 0.23 78 1012.4
20260507023428 40 0 0.0 0.0 0.00 0.24 0.23 77 1012.4
20260507023228 40 0 0.0 0.0 0.00 0.24 0.23 77 1012.3
20260507023028 40 0 0.0 0.0 0.00 0.24 0.23 77 1012.4
20260507022827 40 0 0.0 0.0 0.00 0.24 0.23 76 1012.4
20260507022627 40 0 0.0 0.0 0.00 0.24 0.23 76 1012.3
20260507022427 40 0 0.0 0.0 0.00 0.24 0.23 76 1012.3
20260507022226 40 0 0.0 0.0 0.00 0.24 0.23 76 1012.3
20260507022026 40 0 0.0 0.0 0.00 0.24 0.23 75 1012.3
20260507021826 40 0 0.0 0.0 0.00 0.24 0.23 75 1012.3
20260507021626 40 0 0.0 0.0 0.00 0.24 0.23 75 1012.2
20260507021425 40 0 0.0 0.0 0.00 0.24 0.23 75 1012.2
20260507021225 40 0 0.0 0.0 0.00 0.24 0.23 74 1012.2
20260507021025 40 0 0.0 0.0 0.00 0.24 0.23 74 1012.3
20260507020824 41 0 0.0 0.0 0.00 0.24 0.23 73 1012.3
20260507020624 41 0 0.0 0.0 0.00 0.24 0.23 72 1012.3
20260507020424 41 0 0.0 0.0 0.00 0.24 0.23 72 1012.3
20260507020223 41 0 0.0 0.0 0.00 0.24 0.23 72 1012.3
20260507020023 42 0 0.0 0.0 0.00 0.24 0.23 71 1012.3
20260507015823 42 0 0.0 0.0 0.00 0.25 0.23 71 1012.3
20260507015623 42 0 0.0 0.0 0.00 0.25 0.23 71 1012.5
20260507015422 42 0 0.0 0.0 0.00 0.25 0.23 71 1012.5
20260507015222 42 0 0.0 0.0 0.00 0.25 0.23 70 1012.5
20260507015022 42 0 0.0 0.0 0.00 0.25 0.23 70 1012.5
20260507014821 43 0 0.0 0.0 0.00 0.25 0.23 69 1012.5
20260507014621 43 0 0.0 0.0 0.00 0.25 0.23 68 1012.5
20260507014421 43 0 0.0 0.0 0.00 0.25 0.23 68 1012.6
20260507014220 43 0 0.0 0.0 0.00 0.25 0.23 67 1012.6
20260507014020 43 0 0.0 0.0 0.00 0.25 0.23 67 1012.6
20260507013820 44 0 0.0 1.0 0.00 0.25 0.23 66 1012.7
20260507013620 44 0 0.0 2.0 0.00 0.25 0.23 66 1012.7
20260507013419 44 0 0.0 2.0 0.00 0.25 0.23 66 1012.7
20260507013219 44 0 0.0 2.0 0.00 0.25 0.23 66 1012.8
20260507013019 44 112 0.0 2.0 0.00 0.25 0.23 66 1012.8
20260507012818 44 112 0.0 2.0 0.00 0.25 0.23 65 1012.8
20260507012618 44 0 0.0 0.0 0.00 0.25 0.23 64 1012.8
20260507012418 44 0 0.0 2.0 0.00 0.25 0.23 64 1012.8
20260507012217 45 0 0.0 2.0 0.00 0.25 0.23 64 1012.7
20260507012017 45 0 0.0 2.0 0.00 0.25 0.23 64 1012.7
20260507011817 45 112 0.0 2.0 0.00 0.25 0.23 64 1012.6
20260507011616 45 112 0.0 2.0 0.00 0.25 0.23 63 1012.6
20260507011416 45 0 0.0 2.0 0.00 0.25 0.23 63 1012.5
20260507011216 45 112 0.0 2.0 0.00 0.25 0.23 63 1012.5
20260507011016 45 112 0.0 1.0 0.00 0.25 0.23 62 1012.5
20260507010815 45 0 0.0 2.0 0.00 0.25 0.23 62 1012.5
20260507010615 45 0 0.0 2.0 0.00 0.25 0.23 62 1012.5
20260507010415 45 0 0.0 2.0 0.00 0.25 0.23 62 1012.4
20260507010214 45 112 0.0 2.0 0.00 0.25 0.23 61 1012.3
20260507010014 46 112 0.0 2.0 0.00 0.25 0.23 61 1012.4
20260507005814 46 112 0.0 2.0 0.00 0.27 0.23 61 1012.4
20260507005613 46 112 0.0 2.0 0.00 0.27 0.23 60 1012.3
20260507005413 46 0 0.0 2.0 0.00 0.27 0.23 60 1012.3
20260507005213 46 112 0.0 3.0 0.00 0.27 0.23 59 1012.3
20260507005013 46 112 0.0 3.0 0.00 0.27 0.23 59 1012.2
20260507004812 46 112 0.0 3.0 0.00 0.27 0.23 59 1012.2
20260507004612 46 112 0.0 3.0 0.00 0.27 0.23 59 1012.3
20260507004412 46 112 0.0 3.0 0.00 0.27 0.23 58 1012.3
20260507004211 46 33 1.0 3.0 0.00 0.27 0.23 58 1012.2
20260507004011 46 17 0.0 2.0 0.00 0.27 0.23 58 1012.2
20260507003811 46 15 0.0 2.0 0.00 0.27 0.23 58 1012.2
20260507003611 46 25 0.0 3.0 0.00 0.27 0.23 58 1012.2
20260507003410 47 89 0.0 4.0 0.00 0.27 0.23 58 1012.1
20260507003210 47 51 0.0 4.0 0.00 0.27 0.23 57 1012.1
20260507003010 47 44 0.0 6.0 0.00 0.27 0.23 57 1012.1
20260507002809 47 36 1.0 6.0 0.00 0.27 0.23 57 1012.1
20260507002609 47 340 0.0 6.0 0.00 0.27 0.23 57 1012.0
20260507002409 47 358 1.0 6.0 0.00 0.27 0.23 57 1011.9
20260507002208 47 62 1.0 6.0 0.00 0.27 0.23 57 1011.9
20260507002008 47 87 1.0 6.0 0.00 0.27 0.23 57 1011.9
20260507001808 47 17 1.0 6.0 0.00 0.27 0.23 57 1011.8
20260507001607 47 136 1.0 7.0 0.00 0.27 0.23 56 1011.8
20260507001407 48 107 1.0 7.0 0.00 0.27 0.23 57 1011.9
20260507001207 48 104 2.0 7.0 0.00 0.27 0.23 56 1011.8
20260507001007 48 35 2.0 7.0 0.00 0.27 0.23 56 1011.8
20260507000806 48 31 2.0 7.0 0.00 0.27 0.23 56 1011.8
20260507000606 48 348 1.0 5.0 0.00 0.27 0.23 57 1011.8
20260507000406 48 51 1.0 5.0 0.00 0.27 0.23 57 1011.8
20260507000205 48 67 1.0 5.0 0.00 0.27 0.23 57 1011.8
20260507000005 48 23 1.0 5.0 0.00 0.27 0.23 57 1011.8
20260506235805 48 20 1.0 7.0 0.00 0.27 0.23 57 1011.8
20260506235604 48 31 1.0 7.0 0.00 0.27 0.23 57 1011.8
20260506235404 48 55 2.0 7.0 0.00 0.27 0.23 56 1011.8
20260506235204 48 59 2.0 9.0 0.00 0.27 0.23 56 1011.7
20260506235004 48 315 1.0 9.0 0.00 0.27 0.23 56 1011.7
20260506234803 48 41 1.0 9.0 0.00 0.27 0.23 57 1011.7
20260506234603 49 40 2.0 9.0 0.00 0.27 0.23 56 1011.7
20260506234403 49 48 2.0 9.0 0.00 0.27 0.23 56 1011.6
20260506234202 49 5 2.0 7.0 0.00 0.27 0.23 56 1011.7
20260506234002 49 27 2.0 7.0 0.00 0.27 0.23 57 1011.7
20260506233802 49 60 2.0 7.0 0.00 0.27 0.23 57 1011.7
20260506233601 49 105 1.0 5.0 0.00 0.27 0.23 57 1011.6
20260506233401 49 206 1.0 8.0 0.00 0.27 0.23 57 1011.6
20260506233201 49 353 2.0 8.0 0.00 0.27 0.23 57 1011.5
20260506233001 49 29 2.0 8.0 0.00 0.27 0.23 56 1011.5
20260506232800 49 69 3.0 8.0 0.00 0.27 0.23 56 1011.5
20260506232600 49 82 2.0 8.0 0.00 0.27 0.23 55 1011.5
20260506232400 50 68 2.0 7.0 0.00 0.27 0.23 56 1011.5
20260506232159 50 73 3.0 7.0 0.00 0.27 0.23 55 1011.5
20260506231959 50 14 2.0 7.0 0.00 0.27 0.23 55 1011.5
20260506231759 50 3 2.0 7.0 0.00 0.27 0.23 55 1011.5
20260506231558 50 52 2.0 7.0 0.00 0.27 0.23 55 1011.5
20260506231358 50 93 2.0 7.0 0.00 0.27 0.23 55 1011.4
20260506231158 51 149 1.0 6.0 0.00 0.27 0.23 56 1011.5
20260506230958 51 68 1.0 6.0 0.00 0.27 0.23 56 1011.4
20260506230757 51 60 1.0 6.0 0.00 0.27 0.23 57 1011.4
20260506230557 51 62 2.0 8.0 0.00 0.27 0.23 57 1011.3
20260506230357 51 32 2.0 8.0 0.00 0.27 0.23 57 1011.4
20260506230156 51 70 3.0 8.0 0.00 0.27 0.23 57 1011.4
20260506225956 50 327 4.0 8.0 0.00 0.29 0.23 58 1011.4
20260506225756 50 211 3.0 8.0 0.00 0.29 0.23 57 1011.4
20260506225555 50 81 2.0 7.0 0.00 0.29 0.23 58 1011.4
20260506225355 50 159 3.0 6.0 0.00 0.29 0.23 58 1011.4
20260506225155 50 179 2.0 6.0 0.00 0.29 0.23 61 1011.3
20260506224955 50 37 1.0 5.0 0.00 0.29 0.23 68 1011.4
20260506224754 50 34 0.0 3.0 0.00 0.29 0.23 68 1011.4
20260506224554 50 34 0.0 4.0 0.00 0.29 0.23 68 1011.4
20260506224354 50 19 1.0 4.0 0.00 0.29 0.23 68 1011.4
20260506224153 50 6 1.0 4.0 0.00 0.29 0.23 69 1011.4
20260506223953 50 8 0.0 4.0 0.00 0.29 0.23 69 1011.3
20260506223753 50 34 2.0 4.0 0.00 0.29 0.23 68 1011.3
20260506223552 50 35 1.0 4.0 0.00 0.29 0.23 68 1011.3
20260506223352 50 31 1.0 4.0 0.00 0.29 0.23 69 1011.2
20260506223152 50 31 0.0 4.0 0.00 0.29 0.23 69 1011.1
20260506222952 49 46 1.0 4.0 0.00 0.29 0.23 69 1011.2
20260506222751 49 81 0.0 4.0 0.00 0.29 0.23 70 1011.1
20260506222551 49 81 0.0 4.0 0.00 0.29 0.23 69 1011.0
20260506222351 49 78 1.0 4.0 0.00 0.29 0.23 69 1011.1
20260506222150 50 60 1.0 5.0 0.00 0.29 0.23 68 1011.1
20260506221950 50 52 0.0 5.0 0.00 0.29 0.23 68 1011.0
20260506221750 50 52 1.0 5.0 0.00 0.29 0.23 69 1011.0
20260506221549 50 39 1.0 5.0 0.00 0.29 0.23 68 1011.1
20260506221349 50 78 0.0 5.0 0.00 0.29 0.23 70 1011.0
20260506221149 50 44 0.0 3.0 0.00 0.29 0.23 69 1010.9
20260506220949 50 9 0.0 3.0 0.00 0.29 0.23 69 1010.9
20260506220748 50 41 0.0 3.0 0.00 0.29 0.23 69 1010.9
20260506220548 50 54 1.0 4.0 0.00 0.29 0.23 68 1010.9
20260506220348 50 33 0.0 5.0 0.00 0.29 0.23 70 1010.9
20260506220147 50 331 0.0 5.0 0.00 0.29 0.23 71 1010.8
20260506215947 50 48 0.0 5.0 0.00 0.33 0.23 70 1010.8
20260506215747 50 59 1.0 5.0 0.00 0.33 0.23 70 1010.8
20260506215546 49 16 1.0 5.0 0.00 0.33 0.23 70 1010.7
20260506215346 50 299 1.0 3.0 0.00 0.33 0.23 70 1010.6
20260506215146 50 316 1.0 3.0 0.00 0.33 0.23 70 1010.6
20260506214946 50 337 1.0 3.0 0.00 0.33 0.23 70 1010.5
20260506214745 50 295 1.0 3.0 0.00 0.33 0.23 70 1010.5
20260506214545 50 309 0.0 3.0 0.00 0.33 0.23 70 1010.5
20260506214345 50 357 1.0 3.0 0.00 0.33 0.23 70 1010.4
20260506214144 50 39 1.0 4.0 0.00 0.33 0.23 70 1010.4
20260506213944 50 355 1.0 4.0 0.00 0.33 0.23 70 1010.5
20260506213744 50 330 0.0 4.0 0.00 0.33 0.23 70 1010.4
20260506213543 50 4 1.0 5.0 0.00 0.33 0.23 70 1010.4
20260506213343 50 21 1.0 5.0 0.00 0.33 0.23 70 1010.4
20260506213143 50 32 1.0 5.0 0.00 0.33 0.23 70 1010.3
20260506212943 50 43 1.0 5.0 0.00 0.33 0.23 71 1010.3
20260506212742 50 42 2.0 5.0 0.00 0.33 0.23 71 1010.2
20260506212542 50 352 1.0 4.0 0.00 0.33 0.23 71 1010.3
20260506212342 49 335 1.0 4.0 0.00 0.33 0.23 71 1010.3
20260506212141 49 327 1.0 4.0 0.00 0.33 0.23 71 1010.2
20260506211941 49 358 2.0 4.0 0.00 0.33 0.23 70 1010.3
20260506211741 50 344 1.0 4.0 0.00 0.33 0.23 70 1010.3
20260506211540 50 12 1.0 3.0 0.00 0.33 0.23 71 1010.3
20260506211340 50 335 0.0 4.0 0.00 0.33 0.23 71 1010.2
20260506211140 50 294 0.0 5.0 0.00 0.33 0.23 71 1010.2
20260506210940 49 325 0.0 5.0 0.00 0.33 0.23 70 1010.2
20260506210739 50 45 1.0 5.0 0.00 0.33 0.23 70 1010.3
20260506210539 50 52 1.0 5.0 0.00 0.33 0.23 70 1010.2
20260506210339 50 310 1.0 7.0 0.00 0.33 0.23 70 1010.2
20260506210138 50 358 1.0 8.0 0.00 0.33 0.23 71 1010.1
20260506205938 50 354 2.0 8.0 0.00 0.36 0.23 70 1010.0
20260506205738 50 6 1.0 8.0 0.00 0.36 0.23 69 1010.0
20260506205537 50 355 1.0 8.0 0.00 0.36 0.23 69 1010.1
20260506205337 51 27 1.0 8.0 0.00 0.36 0.23 70 1010.0
20260506205137 50 24 0.0 4.0 0.00 0.36 0.23 70 1010.0
20260506204936 50 356 0.0 4.0 0.00 0.36 0.23 70 1010.0
20260506204736 50 1 1.0 4.0 0.00 0.36 0.23 70 1009.9
20260506204536 50 47 1.0 5.0 0.00 0.36 0.23 70 1010.0
20260506204336 50 53 1.0 5.0 0.00 0.36 0.23 69 1009.9
20260506204135 50 347 1.0 5.0 0.00 0.36 0.23 69 1010.0
20260506203935 51 26 2.0 5.0 0.00 0.36 0.23 68 1010.0
20260506203735 51 25 1.0 5.0 0.00 0.36 0.23 69 1010.0
20260506203534 51 266 0.0 5.0 0.00 0.36 0.23 70 1010.0
20260506203334 50 275 1.0 4.0 0.00 0.36 0.23 71 1010.0
20260506203134 50 327 1.0 4.0 0.00 0.36 0.23 71 1010.1
20260506202933 50 11 1.0 4.0 0.00 0.36 0.23 72 1010.1
20260506202733 50 16 1.0 5.0 0.00 0.36 0.23 71 1010.2
20260506202533 50 5 1.0 5.0 0.00 0.36 0.23 70 1010.1
20260506202333 49 354 1.0 5.0 0.00 0.36 0.23 71 1010.1
20260506202132 49 24 1.0 5.0 0.00 0.36 0.23 72 1010.1
20260506201932 49 56 2.0 5.0 0.00 0.36 0.23 70 1010.1
20260506201732 49 13 2.0 5.0 0.00 0.36 0.23 72 1010.0
20260506201531 49 15 2.0 6.0 0.00 0.36 0.23 72 1010.1
20260506201331 49 18 3.0 7.0 0.00 0.36 0.23 72 1010.2
20260506201131 49 356 2.0 7.0 0.00 0.36 0.23 73 1010.2
20260506200930 49 342 1.0 7.0 0.00 0.36 0.23 74 1010.2
20260506200730 48 28 2.0 9.0 0.00 0.36 0.23 73 1010.2
20260506200530 48 21 1.0 9.0 0.00 0.36 0.23 73 1010.3
20260506200330 48 11 2.0 9.0 0.00 0.36 0.23 73 1010.3
20260506200129 48 20 3.0 9.0 0.00 0.36 0.23 72 1010.3
20260506195929 48 41 4.0 9.0 0.00 0.37 0.23 72 1010.4
20260506195729 48 29 2.0 9.0 0.00 0.37 0.23 72 1010.4
20260506195528 48 50 1.0 8.0 0.00 0.37 0.23 73 1010.4
20260506195328 48 27 2.0 8.0 0.00 0.37 0.23 73 1010.4
20260506195128 48 24 3.0 8.0 0.00 0.37 0.23 72 1010.5
20260506194927 48 2 2.0 8.0 0.00 0.37 0.23 73 1010.5
20260506194727 48 29 3.0 8.0 0.00 0.37 0.23 73 1010.5
20260506194527 48 47 2.0 8.0 0.00 0.37 0.23 72 1010.5
20260506194327 48 23 1.0 8.0 0.00 0.37 0.23 73 1010.4
20260506194126 48 23 3.0 8.0 0.00 0.37 0.23 74 1010.5
20260506193926 48 43 3.0 8.0 0.00 0.37 0.23 73 1010.4
20260506193726 48 39 3.0 8.0 0.00 0.37 0.23 73 1010.4
20260506193525 48 46 3.0 9.0 0.00 0.37 0.23 73 1010.5
20260506193325 48 12 2.0 10.0 0.00 0.37 0.23 73 1010.4
20260506193125 48 7 2.0 10.0 0.00 0.37 0.23 73 1010.5
20260506192924 48 16 3.0 10.0 0.00 0.37 0.23 73 1010.5
20260506192724 48 18 3.0 10.0 0.00 0.37 0.23 73 1010.4
20260506192524 48 34 3.0 9.0 0.00 0.37 0.23 74 1010.5
20260506192324 48 53 4.0 10.0 0.00 0.37 0.23 73 1010.4
20260506192123 48 54 4.0 10.0 0.00 0.37 0.23 73 1010.4
20260506191923 48 43 4.0 10.0 0.00 0.37 0.23 75 1010.3
20260506191723 47 42 4.0 10.0 0.00 0.37 0.23 74 1010.4
20260506191522 47 37 3.0 11.0 0.00 0.37 0.23 76 1010.3
20260506191322 47 42 4.0 11.0 0.00 0.37 0.23 74 1010.3
20260506191122 47 38 5.0 11.0 0.00 0.37 0.23 75 1010.3
20260506190921 47 44 6.0 11.0 0.00 0.37 0.23 75 1010.2
20260506190721 47 63 5.0 11.0 0.00 0.37 0.23 75 1010.2
20260506190521 47 47 4.0 11.0 0.00 0.37 0.23 76 1010.2
20260506190321 47 32 5.0 11.0 0.00 0.37 0.23 75 1010.2
20260506190120 47 31 5.0 12.0 0.00 0.37 0.23 75 1010.2
20260506185920 47 32 3.0 12.0 0.00 0.37 0.23 75 1010.1
20260506185720 47 30 4.0 12.0 0.00 0.37 0.23 76 1010.1
20260506185519 47 23 4.0 12.0 0.00 0.37 0.23 76 1010.1
20260506185319 47 46 3.0 12.0 0.00 0.37 0.23 77 1010.1
20260506185119 47 32 2.0 12.0 0.00 0.37 0.23 78 1010.0
20260506184918 47 17 4.0 12.0 0.00 0.37 0.23 77 1010.0
20260506184718 47 27 5.0 12.0 0.00 0.37 0.23 77 1010.0
20260506184518 47 26 5.0 12.0 0.00 0.37 0.23 77 1010.0
20260506184318 47 41 4.0 12.0 0.00 0.37 0.23 79 1009.9
20260506184117 47 31 5.0 12.0 0.00 0.37 0.23 80 1009.8
20260506183917 47 28 4.0 19.0 0.00 0.37 0.23 81 1009.8
20260506183717 47 23 4.0 19.0 0.00 0.37 0.23 82 1009.8
20260506183516 46 19 5.0 19.0 0.00 0.37 0.23 81 1009.8
20260506183316 46 20 7.0 19.0 0.00 0.37 0.23 81 1009.8
20260506183116 46 27 7.0 19.0 0.00 0.37 0.23 82 1009.9
20260506182915 46 23 6.0 14.0 0.00 0.37 0.23 83 1009.9
20260506182715 46 39 6.0 14.0 0.00 0.37 0.23 85 1009.9
20260506182515 46 39 5.0 12.0 0.00 0.37 0.23 88 1009.9
20260506182315 46 25 6.0 15.0 0.00 0.37 0.23 89 1009.9
20260506182114 46 30 5.0 15.0 0.00 0.37 0.23 89 1009.9
20260506181914 46 43 5.0 15.0 0.00 0.37 0.23 91 1009.9
20260506181714 46 35 6.0 15.0 0.00 0.37 0.23 90 1009.9
20260506181513 46 27 6.0 15.0 0.00 0.37 0.23 91 1009.8
20260506181313 46 25 6.0 14.0 0.00 0.37 0.23 91 1009.8
20260506181113 46 33 5.0 12.0 0.00 0.37 0.23 91 1009.8
20260506180912 47 23 5.0 12.0 0.00 0.37 0.23 90 1009.9
20260506180712 47 31 5.0 12.0 0.00 0.37 0.23 90 1009.8
20260506180512 48 38 4.0 11.0 0.00 0.37 0.23 90 1009.7
20260506180312 48 38 1.0 9.0 0.00 0.37 0.23 90 1009.7
20260506180111 48 30 2.0 10.0 0.00 0.37 0.23 90 1009.7
20260506175911 48 2 3.0 10.0 0.00 0.37 0.23 89 1009.5
20260506175711 48 27 4.0 12.0 0.00 0.37 0.23 89 1009.3
20260506175510 48 23 4.0 12.0 0.00 0.37 0.23 89 1009.3
20260506175310 49 360 4.0 17.0 0.00 0.37 0.23 88 1009.3
20260506175110 49 7 5.0 17.0 0.00 0.37 0.23 88 1009.3
20260506174909 50 12 5.0 17.0 0.00 0.37 0.23 87 1009.2
20260506174709 50 13 6.0 17.0 0.00 0.37 0.23 86 1009.1
20260506174509 51 18 6.0 17.0 0.00 0.37 0.23 85 1009.0
20260506174309 52 19 6.0 17.0 0.00 0.37 0.23 83 1008.8
20260506174108 53 110 7.0 16.0 0.00 0.37 0.23 81 1008.8
20260506173908 55 155 6.0 16.0 0.00 0.37 0.23 78 1009.0
20260506173708 56 271 1.0 14.0 0.00 0.37 0.23 80 1009.0
20260506173507 56 261 1.0 4.0 0.00 0.37 0.23 82 1008.5
20260506173307 56 250 1.0 4.0 0.00 0.37 0.23 82 1008.5
20260506173107 56 218 2.0 5.0 0.00 0.37 0.23 80 1008.6
20260506172906 56 48 1.0 5.0 0.00 0.37 0.23 82 1008.7
20260506172706 56 44 0.0 5.0 0.00 0.37 0.23 83 1008.7
20260506172506 56 22 1.0 5.0 0.00 0.37 0.23 83 1008.6
20260506172307 56 317 1.0 5.0 0.00 0.37 0.23 84 1008.6
20260506172105 55 350 1.0 4.0 0.00 0.37 0.23 86 1008.7
20260506171905 55 39 0.0 4.0 0.00 0.37 0.23 86 1008.7
20260506171705 54 47 2.0 4.0 0.00 0.37 0.23 86 1008.8
20260506171504 54 35 2.0 4.0 0.00 0.37 0.23 86 1008.9
20260506171304 54 35 0.0 4.0 0.00 0.37 0.23 87 1009.0
20260506171104 53 21 1.0 5.0 0.00 0.37 0.23 88 1009.0
20260506170903 53 20 1.0 5.0 0.00 0.37 0.23 89 1008.9
20260506170703 52 64 0.0 5.0 0.00 0.37 0.23 90 1008.9
20260506170503 52 53 1.0 5.0 0.00 0.37 0.23 89 1008.8
20260506170302 52 9 1.0 3.0 0.00 0.37 0.23 90 1008.8
20260506165902 51 49 0.0 3.0 0.00 0.37 0.23 90 1008.8
20260506165702 51 76 0.0 3.0 0.00 0.37 0.23 90 1008.8
20260506165501 50 46 1.0 3.0 0.00 0.37 0.23 91 1008.9
20260506165301 50 27 0.0 4.0 0.00 0.37 0.23 91 1008.9
20260506165101 50 27 0.0 4.0 0.00 0.37 0.23 92 1009.0
20260506164900 50 27 1.0 4.0 0.00 0.37 0.23 92 1009.0
20260506164700 50 19 1.0 4.0 0.00 0.37 0.23 91 1009.1
20260506164500 50 14 1.0 4.0 0.00 0.37 0.23 91 1009.1
20260506164259 50 14 1.0 4.0 0.00 0.37 0.23 91 1009.1
20260506164100 50 56 2.0 4.0 0.00 0.37 0.23 91 1009.1
20260506163859 50 79 1.0 4.0 0.00 0.37 0.23 90 1009.0
20260506163659 50 34 0.0 4.0 0.00 0.37 0.23 90 1009.0
20260506163458 50 34 1.0 4.0 0.00 0.37 0.23 90 1009.1
20260506163258 50 34 1.0 4.0 0.00 0.37 0.23 90 1009.1
20260506163058 50 34 0.0 5.0 0.00 0.37 0.23 91 1009.1
20260506162857 50 52 1.0 5.0 0.00 0.37 0.23 90 1009.1
20260506162657 50 44 1.0 5.0 0.00 0.37 0.23 90 1009.0
20260506162457 50 24 2.0 5.0 0.00 0.37 0.23 90 1009.1
20260506162256 51 45 1.0 5.0 0.00 0.37 0.23 90 1009.0
20260506162056 51 46 0.0 5.0 0.00 0.37 0.23 90 1009.0
20260506161856 51 45 0.0 5.0 0.00 0.37 0.23 90 1009.1
20260506161656 51 42 1.0 5.0 0.00 0.37 0.23 90 1009.1
20260506161455 51 31 1.0 5.0 0.00 0.37 0.23 90 1009.0
20260506161255 51 31 2.0 5.0 0.00 0.37 0.23 90 1009.0
20260506161055 51 28 2.0 5.0 0.00 0.37 0.23 89 1009.0
20260506160854 51 28 1.0 5.0 0.00 0.37 0.23 89 1009.0
20260506160654 51 14 2.0 5.0 0.00 0.37 0.23 89 1009.1
20260506160454 52 6 2.0 5.0 0.00 0.37 0.23 89 1009.0
20260506160253 52 2 1.0 5.0 0.00 0.37 0.23 90 1008.9
20260506160053 52 1 1.0 4.0 0.00 0.37 0.23 90 1008.9
20260506155853 51 1 1.0 4.0 0.00 0.37 0.23 90 1008.9
20260506155653 51 1 1.0 4.0 0.00 0.37 0.23 91 1008.9
20260506155452 51 1 1.0 4.0 0.00 0.37 0.23 91 1009.0
20260506155252 51 1 1.0 4.0 0.00 0.37 0.23 91 1009.0
20260506155052 51 1 1.0 4.0 0.00 0.37 0.23 92 1009.0
20260506154851 50 2 1.0 4.0 0.00 0.37 0.23 92 1009.0
20260506154651 50 37 1.0 5.0 0.00 0.37 0.23 93 1009.2
20260506154451 50 46 2.0 5.0 0.00 0.37 0.23 92 1009.1
20260506154250 50 39 1.0 5.0 0.00 0.37 0.23 92 1009.1
20260506154050 50 35 2.0 5.0 0.00 0.37 0.23 92 1009.2
20260506153850 50 38 1.0 5.0 0.00 0.37 0.23 93 1009.3
20260506153650 50 39 0.0 4.0 0.00 0.37 0.23 93 1009.3
20260506153449 50 39 0.0 5.0 0.00 0.37 0.23 94 1009.2
20260506153249 50 39 1.0 5.0 0.00 0.37 0.23 94 1009.2
20260506153049 49 36 1.0 5.0 0.00 0.37 0.23 94 1009.2
20260506152848 49 35 1.0 5.0 0.00 0.37 0.23 94 1009.2
20260506152648 49 45 1.0 5.0 0.00 0.37 0.23 94 1009.1
20260506152448 49 353 0.0 4.0 0.00 0.37 0.23 94 1009.0
20260506152247 49 353 1.0 4.0 0.00 0.37 0.23 94 1009.1
20260506152047 49 353 2.0 4.0 0.00 0.37 0.23 94 1009.1
20260506151847 49 352 1.0 4.0 0.00 0.37 0.23 95 1009.1
20260506151647 49 352 1.0 4.0 0.00 0.37 0.23 96 1009.0
20260506151446 49 352 1.0 4.0 0.00 0.37 0.23 96 1009.0
20260506151246 49 352 0.0 4.0 0.00 0.37 0.23 97 1009.0
20260506151046 49 360 0.0 4.0 0.00 0.37 0.23 97 1008.9
20260506150845 48 35 1.0 4.0 0.00 0.37 0.23 98 1008.9
20260506150645 48 348 1.0 3.0 0.00 0.37 0.23 98 1009.0
20260506150445 48 21 0.0 3.0 0.00 0.37 0.23 98 1008.9
20260506150244 48 0 0.0 2.0 0.00 0.37 0.23 98 1008.9
20260506150044 47 0 0.0 2.0 0.00 0.37 0.23 98 1008.8
20260506145844 47 0 0.0 2.0 0.00 0.37 0.23 98 1008.9
20260506145644 47 0 0.0 2.0 0.00 0.37 0.23 98 1008.9
20260506145443 47 98 0.0 2.0 0.00 0.37 0.23 98 1008.8
20260506145243 47 98 0.0 4.0 0.00 0.37 0.23 98 1008.8
20260506145043 47 98 1.0 4.0 0.00 0.37 0.23 98 1008.8
20260506144842 46 97 0.0 4.0 0.00 0.37 0.23 98 1008.7
20260506144642 46 86 1.0 4.0 0.00 0.37 0.23 98 1008.7
20260506144442 46 64 1.0 4.0 0.00 0.37 0.23 98 1008.7
20260506144241 46 55 0.0 3.0 0.00 0.37 0.23 98 1008.6
20260506144041 46 55 1.0 4.0 0.00 0.37 0.23 98 1008.6
20260506143841 46 55 1.0 4.0 0.00 0.37 0.23 98 1008.7
20260506143641 46 57 1.0 4.0 0.00 0.37 0.23 98 1008.7
20260506143440 46 60 1.0 4.0 0.00 0.37 0.23 98 1008.7
20260506143240 46 60 0.0 4.0 0.00 0.37 0.23 98 1008.7
20260506143040 46 0 0.0 0.0 0.00 0.37 0.23 98 1008.7
20260506142839 46 0 0.0 2.0 0.00 0.37 0.23 98 1008.7
20260506142639 46 0 0.0 2.0 0.00 0.37 0.23 98 1008.7
20260506142439 46 0 0.0 2.0 0.00 0.37 0.23 98 1008.7
20260506142238 46 60 0.0 2.0 0.00 0.37 0.23 98 1008.7
20260506142038 46 60 0.0 2.0 0.00 0.37 0.23 98 1008.7
20260506141838 46 60 0.0 2.0 0.00 0.37 0.23 98 1008.7
20260506141638 46 60 0.0 3.0 0.00 0.37 0.23 98 1008.8
20260506141437 46 60 0.0 3.0 0.00 0.37 0.23 98 1008.7
20260506141237 46 60 0.0 3.0 0.00 0.37 0.23 98 1008.7
20260506141037 45 60 1.0 3.0 0.00 0.37 0.23 98 1008.8
20260506140836 45 60 1.0 3.0 0.00 0.37 0.23 98 1008.8
20260506140636 45 60 1.0 3.0 0.00 0.37 0.23 98 1008.8
20260506140436 45 60 0.0 3.0 0.00 0.37 0.23 98 1008.8
20260506140235 45 60 1.0 3.0 0.00 0.37 0.23 98 1008.8
20260506140035 45 60 1.0 3.0 0.00 0.37 0.23 98 1008.9
20260506135835 45 60 1.0 3.0 0.00 0.37 0.23 98 1008.8
20260506135634 45 59 1.0 3.0 0.00 0.37 0.23 98 1008.7
20260506135434 46 58 0.0 2.0 0.00 0.37 0.23 98 1008.7
20260506135234 46 58 0.0 2.0 0.00 0.37 0.23 98 1008.7
20260506135034 45 58 0.0 2.0 0.00 0.37 0.23 98 1008.7
20260506134833 45 58 1.0 2.0 0.00 0.37 0.23 98 1008.6
20260506134633 45 58 0.0 2.0 0.00 0.37 0.23 98 1008.6
20260506134433 45 58 0.0 2.0 0.00 0.37 0.23 98 1008.6
20260506134232 45 58 0.0 2.0 0.00 0.37 0.23 98 1008.6
20260506134032 45 50 0.0 2.0 0.00 0.37 0.23 98 1008.6
20260506133832 45 46 0.0 2.0 0.00 0.37 0.23 98 1008.5
20260506133631 45 47 0.0 2.0 0.00 0.37 0.23 98 1008.5
20260506133431 45 35 0.0 3.0 0.00 0.37 0.23 98 1008.5
20260506133231 45 348 1.0 3.0 0.00 0.37 0.23 98 1008.6
20260506133031 45 341 0.0 3.0 0.00 0.37 0.23 98 1008.6
20260506132830 45 341 0.0 3.0 0.00 0.37 0.23 98 1008.6
20260506132630 45 32 0.0 3.0 0.00 0.37 0.23 98 1008.6
20260506132430 45 45 1.0 3.0 0.00 0.37 0.23 98 1008.5
20260506132229 45 54 0.0 2.0 0.00 0.37 0.23 98 1008.5
20260506132029 45 55 1.0 2.0 0.00 0.37 0.23 98 1008.5
20260506131829 45 39 0.0 3.0 0.00 0.37 0.23 98 1008.4
20260506131628 45 27 0.0 3.0 0.00 0.37 0.23 98 1008.5
20260506131428 45 27 1.0 3.0 0.00 0.37 0.23 98 1008.5
20260506131228 45 27 1.0 3.0 0.00 0.37 0.23 98 1008.5
20260506131028 45 27 0.0 3.0 0.00 0.37 0.23 98 1008.4
20260506130827 45 27 0.0 3.0 0.00 0.37 0.23 98 1008.5
20260506130627 45 27 0.0 3.0 0.00 0.37 0.23 98 1008.5
20260506130427 45 0 0.0 2.0 0.00 0.37 0.23 98 1008.4
20260506130226 45 0 0.0 2.0 0.00 0.37 0.23 98 1008.3
20260506130026 45 27 0.0 2.0 0.00 0.37 0.23 98 1008.4
20260506125826 45 27 0.0 2.0 0.00 0.37 0.23 98 1008.3
20260506125625 45 27 0.0 3.0 0.00 0.37 0.23 98 1008.2
20260506125425 45 27 0.0 3.0 0.00 0.37 0.23 98 1008.3
20260506125225 45 27 0.0 3.0 0.00 0.37 0.23 98 1008.3
20260506125025 45 27 0.0 3.0 0.00 0.37 0.23 98 1008.4
20260506124824 45 27 0.0 3.0 0.00 0.37 0.23 98 1008.5
20260506124624 45 27 1.0 2.0 0.00 0.37 0.23 98 1008.4
20260506124424 45 27 1.0 2.0 0.00 0.37 0.23 98 1008.3
20260506124223 45 28 0.0 2.0 0.00 0.37 0.23 98 1008.5
20260506124023 45 41 0.0 2.0 0.00 0.37 0.23 98 1008.4
20260506123823 45 41 0.0 2.0 0.00 0.37 0.23 98 1008.4
20260506123622 45 41 0.0 2.0 0.00 0.37 0.23 98 1008.4
20260506123422 45 41 0.0 2.0 0.01 0.37 0.23 98 1008.4
20260506123222 45 0 0.0 2.0 0.01 0.37 0.23 98 1008.4
20260506123022 45 0 0.0 2.0 0.01 0.37 0.23 98 1008.4
20260506122821 45 41 0.0 2.0 0.01 0.37 0.23 98 1008.3
20260506122621 45 41 0.0 2.0 0.01 0.37 0.23 98 1008.3
20260506122421 45 41 0.0 2.0 0.01 0.37 0.23 98 1008.2
20260506122220 45 0 0.0 0.0 0.01 0.37 0.23 98 1008.3
20260506122020 45 0 0.0 0.0 0.01 0.37 0.23 98 1008.3
20260506121820 45 0 0.0 0.0 0.01 0.37 0.23 98 1008.3
20260506121619 45 0 0.0 0.0 0.01 0.37 0.23 98 1008.2
20260506121419 45 0 0.0 0.0 0.01 0.37 0.23 98 1008.2
20260506121219 45 0 0.0 2.0 0.01 0.37 0.23 98 1008.1
20260506121019 45 0 0.0 2.0 0.01 0.37 0.23 98 1008.1
20260506120818 45 0 0.0 2.0 0.01 0.37 0.23 98 1008.1
20260506120618 45 42 0.0 2.0 0.01 0.37 0.23 98 1008.1
20260506120418 45 42 0.0 2.0 0.01 0.37 0.23 98 1008.1
20260506120217 45 42 0.0 1.0 0.01 0.37 0.23 98 1007.9
20260506120017 45 0 0.0 1.0 0.01 0.37 0.23 98 1007.9
20260506115817 45 0 0.0 2.0 0.01 0.37 0.23 98 1007.9
20260506115616 45 0 0.0 2.0 0.01 0.37 0.23 98 1007.9
20260506115416 45 0 0.0 2.0 0.01 0.37 0.23 98 1008.0
20260506115216 45 40 0.0 2.0 0.01 0.37 0.23 98 1008.0
20260506115015 45 40 0.0 2.0 0.01 0.37 0.23 98 1008.0
20260506114815 45 40 0.0 2.0 0.01 0.37 0.23 98 1008.0
20260506114615 45 40 0.0 2.0 0.01 0.37 0.23 98 1008.0